Wind_Speed
34 35 36 37 39 40 40 40 41 43 46 47 47 48 45 42 44 42 40 40 43 44 45 45 44 43 44 43 43 45 47 50 49 49 51 54 57 61 64 67 69 72 74 76
34 36 36 38 37 37 39 40 41 43 45 47 46 43 45 45 43 42 41 42 42 43 45 45 43 41 38 39 42 45 45 42 44 48 52 56 59 64 68 70 71 71 74 76
34 36 37 37 40 41 41 42 43 46 47 49 48 44 45 45 45 44 43 42 41 41 41 39 34 34 36 39 41 38 36 40 47 52 55 59 63 65 65 66 69 71 71 69
36 36 38 40 41 42 43 43 43 45 47 48 44 46 42 41 41 40 40 40 38 38 35 28 29 33 36 34 30 30 37 45 51 57 62 62 60 60 60 59 57 58 60 62
37 38 37 37 37 39 39 39 39 40 38 35 33 36 34 36 33 29 32 35 34 33 26 28 31 32 24 22 25 30 35 43 42 45 46 46 45 43 46 49 52 55 57 61
35 32 32 33 33 35 36 37 37 36 35 34 33 33 29 28 24 22 25 28 28 22 25 28 24 20 17 19 22 31 33 37 38 37 37 39 41 43 44 46 49 56 63 69
30 30 31 30 33 34 34 35 34 32 32 34 33 30 27 25 23 20 22 23 15 21 22 18 18 17 16 18 26 27 31 32 32 34 34 34 33 34 37 44 54 63 68 65
29 29 30 29 32 31 31 29 30 34 37 36 30 27 24 20 18 17 13 9 17 17 16 17 16 14 17 19 21 23 30 29 32 34 37 34 33 33 38 47 56 64 60 47
30 30 28 27 29 30 30 28 29 33 31 29 25 24 14 17 15 8 8 13 14 14 14 14 14 16 15 15 19 24 25 25 27 31 33 34 30 31 37 43 56 46 36 27
29 25 24 27 29 29 30 28 30 30 27 19 7 9 12 10 10 11 9 10 10 10 11 13 13 11 12 13 18 22 22 23 25 28 31 32 29 31 36 40 46 41 25 25
24 22 23 25 28 28 29 27 27 25 20 8 5 6 8 9 11 8 8 9 7 7 8 9 7 7 8 11 15 17 19 22 26 28 30 31 31 31 32 34 44 36 22 25
23 22 23 25 27 27 28 26 26 22 14 9 9 10 13 10 10 11 8 6 6 4 4 4 2 1 4 8 12 16 20 24 28 30 32 30 31 30 29 29 37 34 29 27
22 22 23 25 26 26 25 25 27 19 13 14 13 13 14 12 12 9 8 6 5 3 1 2 3 5 6 11 15 18 21 24 26 30 32 36 30 29 28 26 26 27 30 31
23 23 24 25 25 24 26 24 27 19 12 17 13 16 15 15 13 11 8 6 7 5 5 4 5 5 8 11 13 16 19 22 25 28 31 33 35 29 25 26 25 27 24 24
24 23 22 25 26 25 25 24 24 16 19 16 19 16 14 16 15 12 9 8 8 7 5 2 1 3 6 10 13 15 17 19 22 25 28 31 32 33 27 24 24 23 21 21
24 24 22 23 26 25 25 24 23 15 18 17 18 16 17 19 16 13 11 9 8 6 5 4 1 3 6 11 13 14 17 21 23 24 25 27 29 31 33 27 23 22 24 23
27 26 24 22 25 25 23 24 19 13 17 17 16 19 24 21 17 14 13 12 10 8 6 3 2 4 7 9 12 14 17 20 22 24 26 27 26 28 30 31 30 23 20 20
27 27 25 24 24 25 22 20 19 13 19 17 17 21 24 22 19 18 17 14 12 10 7 5 2 2 5 9 12 14 17 19 21 23 25 26 27 28 28 28 29 30 26 20
27 27 25 24 21 23 21 18 18 14 15 15 17 22 25 23 21 21 19 17 15 13 10 7 5 5 7 10 13 16 18 20 21 23 25 27 28 26 27 28 27 26 25 25
27 26 25 24 21 21 20 18 15 15 18 15 17 23 27 26 25 24 22 21 18 16 13 11 10 10 12 13 14 16 17 20 22 24 25 27 27 28 26 25 25 26 25 24
27 26 26 24 21 20 19 16 15 15 18 21 21 23 30 31 30 29 27 26 24 21 19 17 16 16 17 18 19 20 22 24 25 26 27 27 27 26 26 26 24 23 22 22
27 27 25 24 21 20 19 18 16 16 16 24 24 24 30 35 35 34 33 31 29 28 26 24 23 23 23 24 25 25 26 28 28 30 30 30 29 28 27 25 26 25 23 22
26 25 23 22 21 20 20 17 16 16 16 18 25 29 29 35 38 38 39 38 36 35 34 32 31 31 31 30 30 31 32 32 32 30 31 32 32 29 27 26 25 25 25 23
24 22 20 21 20 20 19 17 16 17 17 17 18 27 31 30 36 41 42 42 41 42 41 39 38 37 38 37 36 37 37 34 34 34 31 31 29 28 29 28 28 26 25 25
20 20 18 19 17 19 16 17 17 16 16 14 14 17 20 32 35 36 40 44 46 46 46 45 44 42 43 43 42 41 40 39 34 35 33 31 30 29 31 31 29 29 28 28
20 19 19 17 16 16 14 16 17 16 15 16 15 15 17 20 25 33 38 38 41 44 47 49 50 49 47 47 47 46 43 41 37 36 37 35 32 33 34 35 34 32 31 30
Wind_Direction
287 287 288 288 288 286 286 285 285 282 280 277 275 274 275 271 270 270 269 269 272 274 272 271 273 272 273 272 274 279 282 284 284 282 282 282 281 281 281 280 280 280 279 279
287 287 288 287 287 288 289 290 287 284 281 280 278 275 272 271 269 268 269 271 270 272 272 272 272 273 273 276 279 282 285 284 284 286 287 286 284 283 283 284 283 282 281 280
286 286 286 287 289 289 289 288 286 284 279 278 276 270 270 268 268 268 268 269 272 273 271 270 271 272 277 280 283 286 286 288 291 291 289 287 285 285 285 283 283 282 281 277
285 285 286 288 288 289 290 288 286 284 281 278 276 274 270 272 270 266 264 265 268 270 268 271 274 276 278 284 286 287 292 296 294 290 288 289 288 285 284 284 282 280 277 275
285 286 288 291 292 294 293 289 286 286 285 284 284 287 282 284 281 268 259 261 265 264 266 270 272 276 282 287 294 298 303 310 308 298 293 292 289 286 287 289 288 285 282 280
283 286 291 291 295 299 294 295 291 288 283 284 285 285 292 285 279 262 254 258 259 266 266 269 272 275 284 292 295 299 308 316 325 319 309 298 290 289 292 296 296 294 287 283
283 290 295 293 299 303 301 299 295 290 289 288 291 283 282 276 277 266 251 247 260 264 264 266 271 274 285 285 298 306 310 320 328 335 325 312 304 303 305 307 301 301 303 302
289 293 295 293 302 304 306 298 298 297 297 293 289 281 283 272 269 248 250 253 251 248 258 271 273 273 276 285 306 321 318 325 330 332 336 327 315 315 314 309 304 307 308 295
292 294 290 293 304 304 305 300 303 304 300 297 288 275 259 259 251 233 252 241 236 251 273 278 279 275 283 302 317 327 318 326 329 333 336 335 324 318 317 313 319 329 331 320
292 290 288 294 305 306 309 303 309 307 300 297 308 236 207 213 235 247 234 231 246 255 271 281 282 286 297 308 317 330 333 337 337 338 336 337 331 327 327 330 337 348 358 3
287 284 289 294 305 307 312 308 313 310 292 281 181 220 218 226 234 229 219 233 238 253 290 295 285 279 309 309 323 339 348 351 350 350 342 340 337 334 335 339 347 354 344 357
283 284 288 294 302 309 311 310 315 308 277 218 214 228 228 218 208 212 212 210 230 249 296 309 288 251 332 345 352 353 359 3 2 0 0 348 344 341 336 342 352 1 359 342
283 283 287 292 297 308 315 312 317 303 263 212 224 225 212 205 202 201 197 214 217 212 229 105 105 85 36 7 2 357 356 358 1 3 3 6 353 348 346 345 354 2 9 14
279 285 291 295 300 308 312 312 313 300 219 216 215 223 203 194 197 198 200 201 183 174 161 104 72 40 11 7 0 355 355 356 359 2 6 6 9 357 351 355 351 1 3 8
277 281 286 290 297 303 307 313 312 294 211 219 224 221 194 193 199 200 195 172 160 161 152 156 60 17 4 11 7 5 3 359 357 357 2 5 7 12 2 357 360 360 6 2
275 278 284 289 296 299 303 311 308 288 218 221 225 216 198 200 201 198 187 179 171 172 177 169 213 330 337 339 342 344 355 4 9 5 2 1 5 8 16 11 4 4 12 6
273 275 282 289 293 294 298 303 306 285 221 230 225 211 205 205 203 198 192 180 174 169 167 178 250 310 330 342 352 357 360 359 359 1 5 6 3 3 9 16 19 12 11 15
269 273 280 286 289 288 291 297 298 277 229 235 221 210 204 207 206 200 196 187 185 184 188 196 217 321 339 346 351 357 359 356 351 348 349 355 2 5 5 8 13 21 23 18
265 270 276 278 281 284 289 288 289 271 235 236 222 209 210 210 211 208 205 201 201 201 208 219 242 285 316 329 340 345 349 348 345 343 344 345 346 352 359 3 7 10 17 27
262 266 270 272 275 274 280 282 279 270 239 231 224 215 216 215 216 216 218 219 217 219 225 237 258 280 295 306 318 323 329 334 335 335 336 337 340 342 343 349 356 2 7 11
259 263 266 266 266 267 269 269 271 266 242 228 232 225 220 222 220 224 225 227 231 232 239 248 259 271 284 292 301 308 314 318 323 326 326 327 329 332 335 338 341 345 352 359
257 259 260 260 258 259 258 262 269 269 266 241 235 232 227 227 229 230 234 235 238 243 246 251 260 268 276 284 291 297 301 307 314 317 318 320 322 322 325 328 331 333 336 341
252 253 253 253 252 254 256 256 252 258 267 261 242 237 232 234 235 237 239 243 246 248 254 256 261 267 271 277 285 289 293 299 305 310 312 314 318 318 316 317 320 323 324 326
248 246 246 246 248 249 254 259 256 259 261 265 267 248 239 242 243 245 245 248 252 255 257 259 263 268 273 276 281 285 288 293 300 303 305 307 312 311 310 311 311 314 315 317
242 240 237 243 244 250 252 253 259 259 263 260 261 265 257 246 247 249 250 252 254 257 260 262 263 267 271 275 280 282 286 289 296 299 299 299 301 301 300 303 304 306 309 308
238 239 240 243 244 252 254 253 256 259 260 265 252 246 253 261 260 260 258 258 260 263 265 267 269 271 273 275 277 278 281 286 290 292 294 294 293 296 298 300 301 301 302 302
Height
5707 5706 5703 5701 5699 5696 5695 5692 5690 5687 5684 5683 5682 5682 5682 5679 5676 5676 5674 5674 5672 5670 5668 5668 5667 5667 5666 5665 5664 5662 5660 5657 5654 5651 5648 5644 5638 5633 5629 5626 5623 5619 5616 5612
5699 5696 5694 5691 5689 5687 5685 5682 5680 5678 5673 5670 5670 5671 5668 5667 5665 5664 5663 5662 5661 5660 5658 5657 5656 5656 5656 5655 5653 5651 5648 5645 5642 5638 5633 5629 5624 5618 5613 5607 5603 5598 5594 5590
5690 5689 5685 5682 5679 5677 5674 5670 5668 5665 5661 5658 5656 5658 5656 5653 5651 5651 5652 5651 5650 5649 5647 5646 5646 5646 5646 5644 5642 5640 5638 5635 5631 5627 5621 5614 5608 5601 5595 5589 5584 5578 5574 5569
5682 5679 5676 5673 5669 5666 5663 5659 5655 5651 5648 5646 5644 5642 5645 5640 5638 5638 5639 5640 5640 5639 5638 5639 5638 5637 5636 5635 5634 5632 5630 5626 5620 5613 5605 5598 5591 5584 5578 5572 5566 5561 5555 5550
5673 5670 5668 5664 5660 5656 5652 5647 5644 5641 5638 5636 5635 5631 5634 5627 5627 5628 5628 5629 5630 5630 5630 5630 5629 5628 5628 5628 5627 5625 5621 5615 5605 5596 5589 5582 5576 5571 5564 5558 5551 5544 5538 5531
5664 5663 5660 5656 5651 5646 5642 5639 5635 5632 5629 5628 5627 5625 5625 5619 5618 5618 5619 5621 5622 5623 5623 5622 5621 5621 5621 5620 5619 5616 5611 5605 5597 5588 5580 5573 5566 5559 5553 5546 5538 5530 5520 5510
5657 5655 5651 5647 5643 5639 5635 5630 5626 5624 5622 5619 5617 5616 5615 5612 5610 5610 5611 5613 5615 5616 5615 5615 5614 5614 5614 5613 5612 5608 5602 5597 5590 5582 5572 5564 5556 5549 5543 5535 5524 5510 5496 5484
5648 5647 5643 5640 5637 5633 5628 5624 5621 5614 5612 5609 5607 5606 5606 5604 5603 5603 5605 5608 5609 5610 5609 5609 5608 5607 5607 5607 5604 5600 5595 5589 5582 5574 5566 5556 5548 5541 5533 5524 5510 5494 5478 5464
5639 5639 5636 5633 5630 5626 5622 5618 5615 5608 5604 5600 5598 5596 5598 5598 5598 5599 5601 5602 5604 5604 5604 5603 5602 5602 5602 5600 5598 5593 5588 5582 5575 5568 5560 5550 5543 5535 5526 5515 5499 5480 5467 5455
5632 5631 5629 5627 5623 5620 5615 5612 5608 5603 5598 5595 5592 5590 5591 5593 5595 5595 5597 5598 5600 5600 5599 5598 5597 5597 5596 5595 5593 5588 5582 5576 5570 5563 5554 5545 5537 5528 5519 5507 5491 5476 5466 5454
5625 5625 5624 5620 5617 5613 5610 5605 5601 5597 5594 5591 5590 5590 5589 5590 5591 5593 5594 5595 5596 5596 5595 5593 5592 5592 5592 5590 5588 5583 5578 5572 5566 5558 5550 5541 5532 5522 5513 5502 5488 5473 5464 5455
5619 5618 5617 5614 5611 5607 5603 5599 5595 5591 5590 5589 5588 5588 5587 5588 5590 5591 5592 5593 5593 5592 5591 5590 5589 5589 5588 5586 5583 5579 5574 5569 5562 5555 5547 5538 5529 5519 5510 5501 5489 5475 5464 5456
5612 5611 5610 5608 5606 5602 5598 5594 5589 5585 5584 5584 5584 5585 5584 5586 5588 5589 5590 5590 5590 5590 5589 5589 5588 5586 5585 5583 5579 5576 5571 5566 5560 5553 5545 5536 5526 5517 5508 5499 5489 5478 5466 5458
5605 5604 5603 5601 5599 5597 5593 5589 5585 5580 5579 5580 5581 5581 5582 5584 5586 5587 5587 5587 5587 5588 5587 5587 5586 5585 5583 5580 5577 5573 5568 5563 5558 5551 5544 5536 5527 5516 5507 5498 5489 5480 5471 5462
5598 5598 5597 5594 5593 5591 5588 5584 5581 5576 5575 5576 5577 5579 5580 5582 5584 5585 5585 5585 5585 5586 5585 5585 5584 5582 5581 5578 5575 5571 5566 5561 5555 5549 5542 5535 5527 5517 5507 5499 5490 5482 5474 5466
5591 5590 5590 5588 5586 5584 5582 5579 5576 5573 5573 5573 5574 5576 5579 5580 5582 5582 5583 5583 5583 5583 5583 5582 5581 5579 5578 5575 5572 5568 5563 5558 5553 5547 5541 5535 5527 5519 5510 5500 5493 5485 5477 5471
5584 5583 5583 5583 5580 5578 5578 5574 5571 5569 5569 5571 5572 5573 5574 5577 5579 5580 5580 5580 5580 5580 5580 5579 5579 5577 5574 5572 5569 5565 5560 5556 5551 5546 5540 5534 5527 5520 5512 5504 5496 5488 5482 5475
5576 5575 5576 5576 5574 5573 5571 5569 5567 5565 5565 5567 5568 5569 5571 5574 5576 5577 5577 5577 5577 5577 5576 5576 5575 5573 5571 5569 5566 5562 5558 5554 5550 5545 5539 5534 5528 5521 5514 5507 5500 5493 5486 5479
5568 5568 5569 5569 5568 5567 5565 5564 5563 5561 5562 5563 5564 5565 5568 5571 5573 5574 5574 5573 5573 5573 5573 5572 5571 5570 5568 5566 5563 5560 5556 5552 5548 5544 5539 5533 5528 5522 5516 5509 5503 5496 5491 5485
5560 5561 5562 5562 5561 5560 5560 5558 5557 5556 5557 5558 5559 5561 5563 5565 5567 5569 5570 5569 5569 5569 5568 5568 5567 5566 5564 5562 5560 5557 5554 5550 5546 5542 5537 5531 5526 5520 5515 5511 5506 5500 5494 5488
5552 5553 5554 5554 5554 5554 5554 5553 5551 5551 5555 5552 5553 5554 5556 5558 5561 5562 5563 5563 5563 5563 5563 5562 5561 5560 5559 5557 5555 5553 5550 5546 5542 5538 5534 5529 5524 5519 5514 5510 5506 5501 5496 5492
5544 5545 5547 5547 5547 5548 5547 5547 5547 5546 5545 5546 5547 5548 5550 5552 5553 5555 5556 5557 5557 5557 5557 5556 5555 5554 5553 5551 5549 5547 5545 5541 5538 5534 5529 5525 5521 5516 5512 5508 5503 5499 5495 5491
5537 5538 5540 5541 5540 5540 5540 5541 5540 5540 5539 5539 5539 5540 5543 5544 5545 5546 5548 5548 5549 5549 5549 5549 5549 5547 5546 5545 5543 5541 5537 5536 5532 5529 5524 5520 5516 5512 5508 5504 5500 5496 5492 5489
5528 5530 5532 5532 5533 5533 5534 5534 5534 5534 5534 5533 5533 5532 5535 5536 5537 5537 5538 5539 5540 5540 5540 5540 5541 5540 5537 5535 5535 5532 5529 5528 5526 5522 5519 5515 5511 5506 5502 5498 5495 5492 5489 5485
5523 5524 5524 5525 5527 5527 5528 5528 5528 5528 5528 5527 5527 5527 5527 5527 5527 5528 5528 5529 5529 5530 5530 5530 5530 5530 5528 5527 5525 5524 5521 5519 5518 5514 5510 5507 5504 5501 5497 5493 5490 5486 5483 5479
5516 5517 5519 5520 5521 5521 5522 5522 5522 5522 5522 5521 5521 5521 5521 5520 5519 5520 5520 5521 5521 5521 5520 5520 5519 5519 5518 5517 5515 5512 5511 5510 5509 5506 5501 5498 5496 5493 5490 5486 5483 5480 5476 5473